Regional Weather Roundup
Issued by NWS

Home | Current Version | Previous Version | Text Only | Print | Product List | Glossary Off
Versions: 1 2 3 4 5 6 7 8 9 10 11 12 13 14 15 16 17 18 19 20 21 22 23 24 25 26 27 28 29 30 31 32 33 34 35 36 37 38 39 40 41 42 43 44 45 46 47 48 49 50

000
ASUS43 KMPX 251601
RWRMN
WEATHER ROUNDUP FOR MINNESOTA
NATIONAL WEATHER SERVICE TWIN CITIES/CHANHASSEN MN
1000 AM CST SAT FEB 25 2017


NOTE: "FAIR" INDICATES FEW OR NO CLOUDS BELOW 12,000 FEET WITH NO
SIGNIFICANT WEATHER AND/OR OBSTRUCTIONS TO VISIBILITY. N/A MEANS
CURRENT SKY AND/OR WEATHER CONDITIONS ARE NOT AVAILABLE.

MNZ060>063-068>070-251700-
   Twin Cities Metro

CITY           SKY/WX    TMP DP  RH WIND       PRES   REMARKS
TWIN CITIES    SUNNY     21   3  45 NW10      29.95F WCI  10
ST PAUL        SUNNY     22   5  48 NW15      29.96S WCI   9
CRYSTAL        SUNNY     22   2  42 NW16G22   29.94F WCI   8
BLAINE         SUNNY     21   5  49 NW16      29.93F WCI   7
LAKEVILLE      SUNNY     19   7  58 NW14      29.94F WCI   6
EDEN PRAIRIE   SUNNY     23   4  44 NW16G22   29.94F WCI  10
SOUTH ST PAUL  SUNNY     22   4  46 NW15      29.94F WCI   9
LAKE ELMO      FAIR      21   7  53 NW9       29.94S WCI  11
$$
MNZ001>005-007-008-013>017-022>024-027-028-251700-
   Northwest Minnesota

CITY           SKY/WX    TMP DP  RH WIND       PRES   REMARKS
BEMIDJI        LGT SNOW  13   8  80 S3        29.85F
HALLOCK        CLOUDY    21  19  93 W7        29.83F WCI  13
ROSEAU         LGT SNOW  16  10  79 S7        29.82F WCI   6
WARROAD        LGT SNOW  14  10  85 S3        29.83F
THIEF RVR FALL SUNNY     21  16  81 SW14      29.84F WCI   8
CROOKSTON      PTSUNNY   25  19  80 SW14      29.86F WCI  13
FOSSTON        FLURRIES  19  14  79 S17       29.85F WCI   4
DETROIT LAKES  SUNNY     21  16  79 SW8       29.89F WCI  12
MOORHEAD       CLOUDY    23  18  80 SW8       29.91F WCI  14
PARK RAPIDS    CLOUDY    17   6  62 SW3       29.87F
MAHNOMEN       LGT SNOW  19  15  84 SW14      29.87F WCI   6
$$
MNZ006-009>011-018-025>026-251700-
   North Central Minnesota

CITY           SKY/WX    TMP DP  RH WIND       PRES   REMARKS
BAUDETTE       FLURRIES  12   2  64 CALM      29.83F
FLAG ISLAND    CLOUDY    10   5  79 S5        29.82F HAZE    WCI   2
INTL FALLS     SUNNY     11  -1  58 W6        29.83F WCI   1
WASKISH        LGT SNOW  12   9  85 SW3       29.84F
BIG FORK       MOSUNNY   16   1  53 NW6       29.84F WCI   7
LONGVILLE      MOSUNNY   16   3  57 CALM      29.88F
GRAND RAPIDS   MOSUNNY   16   4  59 NW9       29.87F WCI   4
CRANE LAKE     SUNNY     10   1  67 CALM      29.84F
ORR            SUNNY      9  -2  61 NW6       29.80S WCI  -1
COOK           SUNNY     10   1  67 W6        29.83S WCI   1
WALKER         CLOUDY    15   4  61 CALM      29.86F
$$
MNZ012-019>021-037-251700-
   Northeast Minnesota

CITY           SKY/WX    TMP DP  RH WIND       PRES   REMARKS
DULUTH         SUNNY     12   3  67 NW17G26   29.79F WCI  -5
ELY            SUNNY     12   1  62 NW10G16   29.78F WCI  -1
HIBBING        SUNNY     10  -1  61 NW9       29.83F WCI  -3
EVELETH        SUNNY     12  -2  52 W8        29.83S WCI   1
DULUTH HARBOR  SUNNY     16   5  62 NW8       29.88S WCI   5
TWO HARBORS    SUNNY     18   7  62 NW7       29.77S WCI   8
SILVER BAY     SUNNY     16   3  57 NW10G26   29.72F WCI   3
GRAND MARAIS     N/A     18   6  59 N28G43    29.66S WCI  -1
G MARAIS ARPRT CLOUDY    10   1  67 NW17G28   29.64F HAZE    WCI  -7
$$
MNZ029>031-032-039>041-046>048-054>057-064-251700-
   West Central Minnesota

CITY           SKY/WX    TMP DP  RH WIND       PRES   REMARKS
FERGUS FALLS   PTSUNNY   21  14  73 SW9       29.97F WCI  11
WHEATON        CLOUDY    25  18  74 S7        29.96F WCI  17
MORRIS         CLOUDY    21  10  63 SW6       29.95F WCI  14
ALEXANDRIA     CLOUDY    21  12  68 W7        29.92F WCI  12
ELBOW LAKE     CLOUDY    21  11  65 SW8       29.94F WCI  11
WADENA         MIX PCPN  18   9  68 SW8       29.89F WCI   7
GLENWOOD       CLOUDY    21  12  68 W8        29.94F WCI  12
APPLETON       CLOUDY    25  12  58 SW3       29.97F
BENSON         CLOUDY    25   9  50 NW6       29.99S WCI  18
ORTONVILLE     PTSUNNY   25  16  68 CALM      29.96F
MADISON        CLOUDY    28  19  69 SW7       29.98F WCI  21
WILLMAR        PTSUNNY   23  14  68 W6        29.98F WCI  16
$$
MNZ033>034-036-042>043-049>051-058-059-251700-
   Central Minnesota

CITY           SKY/WX    TMP DP  RH WIND       PRES   REMARKS
ST CLOUD       SUNNY     21   7  54 NW13      29.94F WCI   9
SAUK CENTRE    PTSUNNY   21   9  58 W8        29.94F WCI  12
PAYNESVILLE    SUNNY     22  11  61 W9        29.96F WCI  12
AITKIN         SUNNY     19   1  45 W6        29.88F WCI  11
PINE RIVER     MOSUNNY   16   5  62 CALM      29.92F
BRAINERD       MOSUNNY   16   4  59 W7        29.91F WCI   6
STAPLES        FLURRIES  18   9  68 W7        29.90F WCI   8
LONG PRAIRIE   CLOUDY    19   9  63 W7        29.93F WCI  10
LITTLE FALLS   CLOUDY    19   7  58 NW7       29.93F WCI  10
LITCHFIELD     SUNNY     23  10  58 NW8       29.96F WCI  14
BUFFALO        SUNNY     22   6  50 NW10      29.97S WCI  11
MAPLE LAKE     SUNNY     24  10  55 NW10      29.97S WCI  13
HUTCHINSON     SUNNY     24  12  61 NW13      29.98S WCI  12
$$
MNZ037-044-045-052-053-251700-
   East Central Minnesota

CITY           SKY/WX    TMP DP  RH WIND       PRES   REMARKS
PRINCETON      SUNNY     23   5  46 W10       29.93S WCI  12
MORA           SUNNY     19   5  53 NW13      29.93R WCI   7
CAMBRIDGE      SUNNY     21   7  53 NW9G16    29.91F WCI  11
RUSH CITY      SUNNY     19   3  49 NW9       29.92S WCI   9
MOOSE LAKE     SUNNY     16   1  53 NW10G16   29.86F WCI   3
HINCKLEY       FAIR      19   5  53 NW7       29.90S WCI  10
CLOQUET        SUNNY     12   1  62 W13G21    29.83F WCI  -3
MCGREGOR       SUNNY     16   5  62 NW9       29.88F WCI   4
$$
MNZ071>073-080-081-089-090-097-098-251700-
   Southwest Minnesota

CITY           SKY/WX    TMP DP  RH WIND       PRES   REMARKS
MONTEVIDEO     CLOUDY    25  14  63 NW5       30.00F WCI  19
GRANITE FALLS  PTSUNNY   25  14  63 W8        30.01F WCI  16
CANBY          PTSUNNY   29  19  66 CALM      29.99F
MARSHALL       SUNNY     27  16  63 W8        30.00F WCI  19
REDWOOD FALLS  SUNNY     24   9  52 NW8       30.00F WCI  15
OLIVIA         SUNNY     25  14  63 NW8       29.98F WCI  16
PIPESTONE      PTSUNNY   23  16  74 W9        29.98F WCI  13
WINDOM         SUNNY     21  10  63 W9        29.99F WCI  11
WORTHINGTON    SUNNY     22  14  71 W10       30.00F WCI  11
JACKSON        SUNNY     19  10  68 W9        30.00S WCI   9
TRACY          SUNNY     25  15  63 W3        29.99F
SLAYTON        SUNNY     22  15  75 W7        29.99F WCI  13
$$
MNZ065>067-074>077-082>085-091>093-251700-
   South Central Minnesota

CITY           SKY/WX    TMP DP  RH WIND       PRES   REMARKS
MANKATO          N/A     23  10  57 NW14      29.98F WCI  11
NEW ULM        SUNNY     23  10  58 NW13      29.99F WCI  11
ST JAMES       SUNNY     21  14  73 W13       30.01S WCI   9
FAIRMONT       SUNNY     22  11  62 NW15      30.00F WCI   9
GLENCOE        SUNNY     24  14  65 NW13      29.97S WCI  12
FARIBAULT      SUNNY     21   7  53 NW9G18    29.95F WCI  11
OWATONNA       SUNNY     18   7  62 NW13      29.95S WCI   4
WASECA         SUNNY     19  10  68 NW12      29.98S WCI   7
ALBERT LEA     SUNNY     18   9  68 NW10G17   29.96S WCI   6
$$
MNZ078>079-086>088-094>096-251700-
   Southeast Minnesota

CITY           SKY/WX    TMP DP  RH WIND       PRES   REMARKS
ROCHESTER      SUNNY     14   6  70 NW21      29.91R WCI  -4
RED WING       SUNNY     19   1  45 NW13      29.93S WCI   7
STANTON        SUNNY     20   6  55 NW13      29.94S WCI   7
WINONA         SUNNY     19   9  63 NW13      29.94R WCI   7
AUSTIN         SUNNY     16   7  67 NW14G23   29.94S WCI   1
PRESTON        SUNNY     14   5  67 NW15G26   29.91S WCI  -1
$$
ABBREVIATIONS USED IN REMARKS
   TC - TEMPERATURES IN CELSIUS
  WCI - WIND CHILL INDEX
   HX - HEAT INDEX
  VSB - VISIBILITY
$$




USA.gov is the U.S. government's official web portal to all federal, state and local government web resources and services.